Find Starlink 6220

NORAD ID: 56482 Int'l Des: 2023-064 Owner: SPXS Country: US Constellation: starlink operational
LEOCIRCULAR

Live Position

Loading 3D Globe...

About Starlink 6220

Description loading...

Upcoming Passes

Passes for default location (London). Set your location on the main map for personalized predictions.

Altitude History

Loading altitude history...

Two-Line Element Set

1 56482U 23064AL 26105.49881687 .00000031 00000-0 10403-4 0 9991
2 56482 70.0005 31.6204 0003007 273.7358 86.3457 14.98341809161255
Epoch: Apr 15, 2026 • Age: 17 hours

Current Status

Altitude 574.3 km
Velocity 7.57 km/s
Sub-Earth Point 13.63°N, 70.47°W
Launch Date May 10, 2023
Age 2.9 years
Type internet

Technical Details

Classification Payload
Mass 305.00 kg
Dry Mass 290.00 kg
Total Mass 305.00 kg
Length 0.20 m
Diameter 2.80 m
Span 9.00 m
Shape Box + pan
Manufacturer SPXS
Bus Type Starlink
Phase Status In Orbit
Owner/State SPXS/US

Most Searched